Simultaneous Nadir Overpasses (SNOs) Predictions

Prediction of SNOs between TERRA and METOP-C Satellite Orbit:

Table of predicted SNOs for the next 14.0 days since TLE Epoch: 8/7/2021
Index Date (TERRA) Time (TERRA) Lat,Lon (TERRA) SZA (TERRA ) Date (METOP-C) Time (METOP-C) Lat,Lon (METOP-C) SZA (METOP-C ) Distance(km) Time Diff (sec)
1 08/07/2021 15:10:20 -81.29, 178.07 112.40 08/07/2021 15:10:11 -81.30, 178.07 112.41 0.16 9
2 08/07/2021 15:59:46 81.30, -14.17 67.63 08/07/2021 16:00:51 81.30, -14.08 67.67 1.55 65
3 08/10/2021 09:55:06 81.29, 76.76 68.39 08/10/2021 09:53:52 81.29, 76.95 68.38 3.27 74
4 08/10/2021 10:44:32 -81.30,-115.32 111.56 08/10/2021 10:44:31 -81.30,-115.25 111.56 1.15 1
5 08/10/2021 11:33:58 81.31, 52.42 68.47 08/10/2021 11:35:11 81.31, 52.61 68.52 3.15 73
6 08/13/2021 05:29:18 81.29, 143.31 69.26 08/13/2021 05:28:13 81.29, 143.23 69.22 1.57 65
7 08/13/2021 06:18:45 -81.29, -49.11 110.74 08/13/2021 06:18:52 -81.30, -48.99 110.72 2.28 7
8 08/16/2021 01:03:30 81.30,-150.17 70.15 08/16/2021 01:02:33 81.29,-150.13 70.13 0.95 57
9 08/16/2021 01:52:57 -81.30, 17.43 109.85 08/16/2021 01:53:13 -81.29, 17.27 109.86 2.72 16
10 08/18/2021 20:37:42 81.28, -84.06 71.02 08/18/2021 20:36:53 81.29, -83.89 71.02 3.11 49



Historial Predications of SNOs between TERRA and METOP-C
